Time,TemperatureF,DewpointF,PressureIn,WindDirection,WindDirectionDegrees,WindSpeedMPH,WindSpeedGustMPH,Humidity,HourlyPrecipIn,Conditions,Clouds,dailyrainin,SoftwareType,DateUTC
2013-10-08 00:14:00,55.0,50.0,30.09,SW,217,0.0,0.0,84,0.00,,,0.25,,2013-10-08 04:14:00,
2013-10-08 00:23:00,55.0,50.0,30.09,SW,217,0.0,0.0,84,0.00,,,0.25,,2013-10-08 04:23:00,
2013-10-08 00:53:00,54.0,50.0,30.09,SW,217,0.0,0.0,85,0.00,,,0.25,,2013-10-08 04:53:00,
2013-10-08 01:22:00,53.0,49.0,30.09,SW,217,0.0,0.0,86,0.00,,,0.14,,2013-10-08 05:22:00,
2013-10-08 01:53:00,52.0,48.0,30.09,SW,217,0.0,0.0,87,0.00,,,0.14,,2013-10-08 05:53:00,
2013-10-08 02:22:00,52.0,49.0,30.09,SW,217,0.0,0.0,88,0.00,,,0.11,,2013-10-08 06:22:00,
2013-10-08 02:52:00,51.0,48.0,30.09,SW,217,0.0,0.0,89,0.00,,,0.11,,2013-10-08 06:52:00,
2013-10-08 03:21:00,51.0,48.0,30.09,SW,217,0.0,0.0,90,0.00,,,0.03,,2013-10-08 07:21:00,
2013-10-08 03:52:00,51.0,48.0,30.09,SW,217,0.0,0.0,91,0.00,,,0.03,,2013-10-08 07:52:00,
2013-10-08 04:22:00,51.0,48.0,30.08,SW,217,0.0,0.0,90,0.00,,,0.02,,2013-10-08 08:22:00,
2013-10-08 04:52:00,51.0,48.0,30.08,SW,217,0.0,0.0,90,0.00,,,0.02,,2013-10-08 08:52:00,
2013-10-08 05:22:00,50.0,47.0,30.08,SW,218,0.0,0.0,90,0.00,,,0.01,,2013-10-08 09:22:00,
2013-10-08 05:53:00,50.0,47.0,30.09,SW,218,0.0,0.0,90,0.00,,,0.01,,2013-10-08 09:53:00,
2013-10-08 06:23:00,50.0,47.0,30.09,SW,218,0.0,0.0,90,0.00,,,0.00,,2013-10-08 10:23:00,
2013-10-08 06:53:00,50.0,47.0,30.10,SW,218,0.0,0.0,90,0.00,,,0.00,,2013-10-08 10:53:00,
2013-10-08 07:22:00,50.0,47.0,30.10,SW,218,0.0,0.0,90,0.00,,,0.00,,2013-10-08 11:22:00,
2013-10-08 07:42:00,50.0,47.0,30.10,SW,218,0.0,0.0,91,0.00,,,0.00,,2013-10-08 11:42:00,
2013-10-08 07:52:00,50.0,47.0,30.10,SW,218,0.0,0.0,91,0.00,,,0.00,,2013-10-08 11:52:00,
2013-10-08 08:12:00,49.0,46.0,30.11,SW,218,0.0,0.0,91,0.00,,,0.00,,2013-10-08 12:12:00,
2013-10-08 08:22:00,49.0,46.0,30.11,SW,218,0.0,0.0,91,0.00,,,0.00,,2013-10-08 12:22:00,
2013-10-08 08:52:00,49.0,47.0,30.12,SW,218,0.0,0.0,92,0.00,,,0.00,,2013-10-08 12:52:00,
2013-10-08 09:12:00,50.0,48.0,30.13,SW,218,0.0,0.0,93,0.00,,,0.00,,2013-10-08 13:12:00,
2013-10-08 09:22:00,50.0,48.0,30.13,SW,218,0.0,0.0,93,0.00,,,0.00,,2013-10-08 13:22:00,
2013-10-08 09:42:00,51.0,49.0,30.14,SW,218,0.0,1.0,93,0.00,,,0.00,,2013-10-08 13:42:00,
2013-10-08 09:52:00,51.0,49.0,30.14,SW,218,0.0,0.0,93,0.00,,,0.00,,2013-10-08 13:52:00,
2013-10-08 10:22:00,53.0,51.0,30.14,SW,218,0.0,1.0,92,0.00,,,0.00,,2013-10-08 14:22:00,
2013-10-08 10:52:00,54.0,51.0,30.15,SW,225,0.0,0.0,88,0.00,,,0.00,,2013-10-08 14:52:00,
2013-10-08 11:22:00,56.0,51.0,30.15,South,178,0.0,1.0,84,0.00,,,0.00,,2013-10-08 15:22:00,
2013-10-08 11:53:00,58.0,52.0,30.15,West,276,0.0,1.0,81,0.00,,,0.00,,2013-10-08 15:53:00,
2013-10-08 12:23:00,60.0,52.0,30.15,WSW,240,0.0,2.0,74,0.00,,,0.00,,2013-10-08 16:23:00,
2013-10-08 12:42:00,61.0,52.0,30.15,WSW,240,0.0,1.0,72,0.00,,,0.00,,2013-10-08 16:42:00,
2013-10-08 12:53:00,62.0,52.0,30.14,West,272,0.0,1.0,71,0.00,,,0.00,,2013-10-08 16:53:00,
2013-10-08 13:23:00,64.0,53.0,30.14,WNW,298,1.0,2.0,67,0.00,,,0.00,,2013-10-08 17:23:00,
2013-10-08 13:52:00,68.0,54.0,30.13,NW,304,0.0,2.0,61,0.00,,,0.00,,2013-10-08 17:52:00,
2013-10-08 14:22:00,71.0,56.0,30.11,WSW,242,0.0,3.0,59,0.00,,,0.00,,2013-10-08 18:22:00,
2013-10-08 14:42:00,72.0,55.0,30.11,NW,315,1.0,3.0,56,0.00,,,0.00,,2013-10-08 18:42:00,
2013-10-08 14:53:00,73.0,58.0,30.11,WNW,295,0.0,3.0,59,0.00,,,0.00,,2013-10-08 18:53:00,
2013-10-08 15:22:00,75.0,59.0,30.10,WNW,296,0.0,3.0,57,0.00,,,0.00,,2013-10-08 19:22:00,
2013-10-08 15:42:00,76.0,59.0,30.10,West,279,0.0,3.0,55,0.00,,,0.00,,2013-10-08 19:42:00,
2013-10-08 15:52:00,77.0,58.0,30.10,WNW,299,0.0,2.0,52,0.00,,,0.00,,2013-10-08 19:52:00,
2013-10-08 16:22:00,77.0,59.0,30.10,NW,310,0.0,3.0,54,0.00,,,0.00,,2013-10-08 20:22:00,
2013-10-08 16:42:00,77.0,58.0,30.10,NW,310,0.0,1.0,52,0.00,,,0.00,,2013-10-08 20:42:00,
2013-10-08 16:52:00,77.0,60.0,30.10,NW,310,0.0,2.0,55,0.00,,,0.00,,2013-10-08 20:52:00,
2013-10-08 17:22:00,78.0,59.0,30.10,NW,310,0.0,2.0,52,0.00,,,0.00,,2013-10-08 21:22:00,
2013-10-08 17:44:00,78.0,58.0,30.10,NW,310,0.0,0.0,50,0.00,,,0.00,,2013-10-08 21:44:00,
2013-10-08 17:54:00,78.0,59.0,30.10,West,261,0.0,0.0,52,0.00,,,0.00,,2013-10-08 21:54:00,
2013-10-08 18:03:00,78.0,59.0,30.10,West,261,0.0,0.0,52,0.00,,,0.00,,2013-10-08 22:03:00,
2013-10-08 18:24:00,74.0,59.0,30.10,WNW,284,0.0,0.0,60,0.02,,,0.02,,2013-10-08 22:24:00,
2013-10-08 18:48:00,71.0,58.0,30.11,WNW,284,0.0,1.0,64,0.02,,,0.02,,2013-10-08 22:48:00,
2013-10-08 18:56:00,70.0,58.0,30.11,WNW,284,0.0,0.0,65,0.02,,,0.02,,2013-10-08 22:56:00,
2013-10-08 19:23:00,68.0,57.0,30.13,WNW,284,0.0,0.0,68,0.00,,,0.02,,2013-10-08 23:23:00,
2013-10-08 19:52:00,66.0,58.0,30.13,WNW,284,0.0,0.0,75,0.00,,,0.02,,2013-10-08 23:52:00,
2013-10-08 20:12:00,65.0,57.0,30.13,WNW,284,0.0,0.0,75,0.00,,,0.02,,2013-10-09 00:12:00,
2013-10-08 20:22:00,66.0,57.0,30.13,WNW,284,0.0,0.0,74,0.00,,,0.02,,2013-10-09 00:22:00,
2013-10-08 20:43:00,65.0,56.0,30.14,WNW,284,0.0,0.0,73,0.00,,,0.02,,2013-10-09 00:43:00,
2013-10-08 20:52:00,65.0,56.0,30.14,WNW,284,0.0,0.0,74,0.00,,,0.02,,2013-10-09 00:52:00,
2013-10-08 21:22:00,64.0,56.0,30.15,WNW,284,0.0,0.0,74,0.00,,,0.02,,2013-10-09 01:22:00,
2013-10-08 21:43:00,63.0,55.0,30.15,WNW,284,0.0,0.0,75,0.00,,,0.02,,2013-10-09 01:43:00,
2013-10-08 21:52:00,63.0,56.0,30.16,WNW,284,0.0,0.0,78,0.00,,,0.02,,2013-10-09 01:52:00,
2013-10-08 22:23:00,62.0,55.0,30.16,WNW,284,0.0,0.0,79,0.00,,,0.02,,2013-10-09 02:23:00,
2013-10-08 22:42:00,62.0,55.0,30.16,WNW,284,0.0,0.0,79,0.00,,,0.02,,2013-10-09 02:42:00,
2013-10-08 22:52:00,61.0,55.0,30.16,WNW,284,0.0,0.0,81,0.00,,,0.02,,2013-10-09 02:52:00,
2013-10-08 23:23:00,61.0,56.0,30.17,WNW,284,0.0,0.0,83,0.00,,,0.02,,2013-10-09 03:23:00,
2013-10-08 23:44:00,61.0,55.0,30.16,WNW,284,0.0,0.0,81,0.00,,,0.02,,2013-10-09 03:44:00,
2013-10-08 23:54:00,61.0,55.0,30.16,WNW,284,0.0,0.0,81,0.00,,,0.02,,2013-10-09 03:54:00,